KUIPER-00167 (65780 NORAD) Tracking and Keplerian Element Data

This shows tracking and keplerian element data for the satellite.

Feedback or suggestion? Click here.




ElementValue
Catalog65780
NameKUIPER-00167
Epoch Orbit130
Epoch Day354.25003472
Epoch Year2025
RAAN36.8403
Inclination51.898
Eccentricity0.0006464
Argument of Perigee7.4255
Mean Anonmoly108.7453
Mean Motion14.82738735
Decay Rate-0.00058675
L11 65780U 25217U 25354.25003472 -.00058675 00000+0 -72279-2 0 9996
L22 65780 51.8980 36.8403 0006464 7.4255 108.7453 14.82738735 1306



Live tracking and technical data element details for KUIPER-00167 (NORAD 65780). KUIPER-00167 can be tracked NOW for your location showing map with azimuth and elevation plus other details from your city location.







IsCatalogInMostPopularTable: catalog: 65780, numindb: 5
Update: records affected: 1



GetName: 65780 KUIPER-00167

Hit Count: updated at: Mon, 20 Apr 2026 10:17:36 GMT